Location: Béaulencourt
(50.0796°N, 2.8795°E)
Time: 01:07:33
(UTC+00:00)

Meteor 2-5 Rocket - Pass Details

Date: 20 January 2026
Orbit: 833 x 910 km, 81.2° (Epoch: 18 February)

Event Time Altitude Azimuth Distance (km) Brightness Sun altitude
Rises 05:36:52 0° 349° (NNW) 3,510 6.7 -18.8°
Reaches altitude 10° 05:39:21 10° 352° (N) 2,576 6.0 -18.5°
Maximum altitude 05:45:12 68° 75° (ENE) 975 4.2 -17.5°
Drops below altitude 10° 05:51:06 10° 158° (SSE) 2,588 6.7 -16.6°
Sets 05:53:35 0° 161° (SSE) 3,527 7.4 -16.2°
